Marathon, FL

9:19 PM EST on February 11, 2016 (GMT -0500)
Florida Keys Marathon

Weather History for KMTH - December, 2014

Change the Weather History Date:

Sunday, December 7, 2014

  Actual Average Record
Temperature  
Mean Temperature 73 °F 73 °F  
Max Temperature 76 °F 78 °F 84 °F (2004)
Min Temperature 69 °F 68 °F 50 °F (2010)
Degree Days  
Heating Degree Days 0 0  
Month to date heating degree days 0 0  
Since 1 July heating degree days 6 1  
Cooling Degree Days 8 9  
Month to date cooling degree days 71 63  
Year to date cooling degree days 5057 4827  
Growing Degree Days 22 (Base 50)    
Moisture  
Dew Point 68 °F    
Average Humidity 90    
Maximum Humidity 100    
Minimum Humidity 79    
Precipitation  
Precipitation 0.00 in 0.07 in 0.52 in (2015)
Month to date precipitation 0.22 0.47  
Year to date precipitation 35.09 44.62  
Snow  
Snow 0.00 in - - ()
Month to date snowfall 0.0  
Since 1 July snowfall 0.0  
Snow Depth 0.00 in    
Sea Level Pressure  
Sea Level Pressure 30.04 in    
Wind  
Wind Speed 9 mph (NNW)    
Max Wind Speed 15 mph    
Max Gust Speed 21 mph    
Visibility 10 miles    
Events      
T = Trace of Precipitation, MM = Missing Value Source: NWS Daily Summary

Daily Weather History Graph

Daily Weather History Graph

Search for Another Location

Airport or City:

Trip Planner

Search our weather history database for the weather conditions in past years. The results will help you decide how hot, cold, wet, or windy it might be!

Date:

Astronomy

Dec. 07, 2014 Rise Set
Actual Time 6:55 AM EST 5:35 PM EST
Civil Twilight 6:31 AM EST 6:00 PM EST
Nautical Twilight 6:02 AM EST 6:28 PM EST
Astronomical Twilight 5:34 AM EST 6:56 PM EST
Moon 6:56 PM EST (12/7) 7:44 AM EST (12/7)
Length of Visible Light 11h 29m
Length of Day
10h 39m
Full, 98% of the Moon is Illuminated
Dec 7
Full
Dec 14
Last Quarter
Dec 21
New
Dec 28
First Quarter
Jan 4
Full

Hourly Weather History & Observations

Time (EST) Temp. Dew Point Humidity Pressure Visibility Wind Dir Wind Speed Gust Speed Precip Events Conditions
12:53 AM 72.0 °F 66.0 °F 81% 30.08 in 10.0 mi North 5.8 mph - N/A   Clear
1:53 AM 71.1 °F 66.9 °F 87% 30.07 in 10.0 mi NNW 4.6 mph - N/A   Clear
2:53 AM 71.1 °F 66.9 °F 87% 30.06 in 10.0 mi NNW 4.6 mph - N/A   Clear
3:53 AM 71.1 °F 66.9 °F 87% 30.06 in 10.0 mi North 6.9 mph - N/A   Clear
4:53 AM 71.1 °F 66.9 °F 87% 30.05 in 10.0 mi North 5.8 mph - N/A   Clear
5:53 AM 71.1 °F 66.9 °F 87% 30.05 in 10.0 mi NNW 6.9 mph - N/A   Clear
6:53 AM 71.1 °F 66.9 °F 87% 30.06 in 10.0 mi North 6.9 mph - N/A   Clear
7:53 AM 72.0 °F 66.9 °F 84% 30.08 in 10.0 mi North 8.1 mph - N/A   Clear
8:53 AM 73.9 °F 66.9 °F 79% 30.09 in 10.0 mi NNW 6.9 mph - N/A   Clear
9:53 AM 75.0 °F 68.0 °F 79% 30.11 in 10.0 mi NNW 10.4 mph - N/A   Clear
10:53 AM 75.0 °F 68.0 °F 79% 30.09 in 10.0 mi NNW 10.4 mph - N/A   Clear
11:53 AM 75.0 °F 70.0 °F 84% 30.08 in 10.0 mi NNW 10.4 mph - N/A   Clear
12:53 PM 73.9 °F 69.1 °F 85% 30.05 in 10.0 mi NNW 10.4 mph - N/A   Clear
1:53 PM 73.9 °F 70.0 °F 87% 30.02 in 10.0 mi NW 8.1 mph - N/A   Clear
2:53 PM 73.0 °F 69.1 °F 87% 30.00 in 10.0 mi NW 10.4 mph 18.4 mph N/A   Clear
3:53 PM 73.0 °F 69.1 °F 87% 29.99 in 9.0 mi WNW 9.2 mph - N/A   Clear
4:53 PM 71.1 °F 69.1 °F 93% 30.00 in 9.0 mi NW 8.1 mph - N/A   Clear
5:16 PM 71.1 °F 69.1 °F 93% 30.00 in 9.0 mi NW 11.5 mph 17.3 mph N/A   Partly Cloudy
5:39 PM 70.0 °F 69.1 °F 97% 30.01 in 8.0 mi NW 10.4 mph - N/A   Mostly Cloudy
5:53 PM 70.0 °F 69.1 °F 97% 30.01 in 9.0 mi NW 10.4 mph - N/A   Mostly Cloudy
6:01 PM 70.0 °F 69.1 °F 97% 30.02 in 10.0 mi NW 9.2 mph - N/A   Scattered Clouds
6:35 PM 70.0 °F 69.1 °F 97% 30.02 in 10.0 mi NNW 12.7 mph 16.1 mph N/A   Mostly Cloudy
6:53 PM 71.1 °F 69.1 °F 93% 30.03 in 9.0 mi NNW 9.2 mph - N/A   Mostly Cloudy
7:16 PM 71.1 °F 69.1 °F 93% 30.03 in 9.0 mi NNW 10.4 mph - N/A   Mostly Cloudy
7:30 PM 71.1 °F 69.1 °F 93% 30.03 in 9.0 mi NNW 11.5 mph - N/A   Scattered Clouds
7:53 PM 72.0 °F 69.1 °F 91% 30.04 in 10.0 mi NNE 13.8 mph - N/A   Mostly Cloudy
8:03 PM 71.1 °F 66.9 °F 87% 30.04 in 10.0 mi NNE 12.7 mph - N/A   Mostly Cloudy
8:30 PM 71.1 °F 66.0 °F 84% 30.05 in 10.0 mi NNE 13.8 mph - N/A   Scattered Clouds
8:53 PM 70.0 °F 64.9 °F 84% 30.05 in 10.0 mi NNE 11.5 mph - N/A   Clear
9:53 PM 69.1 °F 64.0 °F 84% 30.05 in 10.0 mi NNE 12.7 mph - N/A   Clear
10:53 PM 69.1 °F 64.0 °F 84% 30.06 in 10.0 mi NNE 11.5 mph - N/A   Clear
11:53 PM 70.0 °F 64.0 °F 81% 30.05 in 10.0 mi NNE 11.5 mph - N/A   Clear